Regional Weather Roundup
Issued by NWS

Home | Current Version | Previous Version | Graphics & Text | Print | Product List | Glossary On
Versions: 1 2 3 4 5 6 7 8 9 10 11 12 13 14 15 16 17 18 19 20 21 22 23 24 25 26 27 28 29 30 31 32 33 34 35 36 37 38 39 40 41 42 43 44 45 46 47 48 49 50
000
ASUS43 KOAX 261402
RWRNE

WEATHER ROUNDUP FOR NEBRASKA
NATIONAL WEATHER SERVICE OMAHA NE
900 AM CDT WED APR 26 2017

NOTES: SATELLITE DATA IS BEING USED TO AUGMENT CLOUD COVER ABOVE
       12000 FEET.
       "FAIR" INDICATES FEW OR NO CLOUDS BELOW 12,000 FEET WITH NO
       SIGNIFICANT WEATHER AND/OR OBSTRUCTIONS TO VISIBILITY.

  * THESE STATIONS DO NOT REPORT WEATHER SUCH AS RAIN...SNOW OR FOG.

NEZ001>004-019>022-054>056-261500-
NEBRASKA PANHANDLE

CITY           SKY/WX    TMP DP  RH WIND       PRES   REMARKS
SCOTTSBLUFF    MOSUNNY   34  27  75 N5        29.85S WCI  30
ALLIANCE       CLOUDY    30  26  85 N10       29.83R WCI  21
CHADRON        CLOUDY    30  26  85 NE6       29.88S WCI  24
KIMBALL        SUNNY     35  28  76 N12       29.81  WCI  27
SIDNEY         MOSUNNY   34  27  75 N17       29.83R WCI  23
$$

NEZ057>060-069>072-079>082-261500-
SOUTHWEST NEBRASKA

CITY           SKY/WX    TMP DP  RH WIND       PRES   REMARKS
NORTH PLATTE   CLOUDY    35  26  69 NW15G26   29.81S WCI  25
IMPERIAL       CLOUDY    33  25  72 N21G28    29.82F WCI  21
LEXINGTON      CLOUDY    35  28  74 N21G28    29.77F WCI  24
MCCOOK         CLOUDY    36  27  69 N18       29.80F WCI  26
OGALLALA       CLOUDY    34  26  73 NW17G23   29.84R WCI  24
$$

NEZ005>010-023>029-035>040-094-261500-
NORTH CENTRAL NEBRASKA

CITY           SKY/WX    TMP DP  RH WIND       PRES   REMARKS
VALENTINE      CLOUDY    33  26  75 NW15      29.82S WCI  23
AINSWORTH      CLOUDY    32  29  88 NW23G30   29.79F WCI  19
BROKEN BOW     CLOUDY    34  27  75 NW24G30   29.76S WCI  21
O`NEILL        CLOUDY    33  29  85 NW25      29.75S WCI  20
ORD            CLOUDY    34  28  79 NW21      29.74F WCI  22
THEDFORD       CLOUDY    33  28  83 NW23      29.80F WCI  20
$$

NEZ041-046>049-061>064-073>077-083>087-261500-
SOUTH CENTRAL NEBRASKA

CITY           SKY/WX    TMP DP  RH WIND       PRES   REMARKS
GRAND ISLAND   CLOUDY    36  30  79 NW22G29   29.72F WCI  25
AURORA         CLOUDY    36  31  81 NW20G26   29.71F WCI  26
HASTINGS       PTSUNNY   37  28  70 NW24G31   29.74S WCI  26
HEBRON         CLOUDY    38  30  74 N20G26    29.73R WCI  28
HOLDREGE       CLOUDY    36  28  74 NW18G24   29.75F WCI  25
KEARNEY *      CLOUDY    36  25  64 N17G26    29.75F WCI  25
YORK           CLOUDY    37  32  81 NW18G28   29.69F WCI  27
$$

NEZ011>018-030>034-042>045-261500-
NORTHEAST NEBRASKA

CITY           SKY/WX    TMP DP  RH WIND       PRES   REMARKS
NORFOLK        CLOUDY    34  28  79 NW20G31   29.68F WCI  23
ALBION         CLOUDY    36  30  78 NW20G31   29.71R WCI  25
BLAIR          CLOUDY    36  33  87 NW15G21   29.66S WCI  27
FREMONT        CLOUDY    37  32  82 NW18G25   29.69S WCI  27
TEKAMAH        CLOUDY    37  32  82 NW24G32   29.66F WCI  26
WAYNE          CLOUDY    35  32  91 NW26G32   29.68F WCI  22
$$

NEZ050>053-065>068-078-088>093-261500-
SOUTHEAST NEBRASKA

CITY           SKY/WX    TMP DP  RH WIND       PRES   REMARKS
LINCOLN        CLOUDY    39  30  70 N21G29    29.70F WCI  29
OMAHA EPPLEY   CLOUDY    37  31  78 NW21      29.66S WCI  26
BEATRICE       CLOUDY    39  33  80 NW17      29.71R WCI  30
FALLS CITY     CLOUDY    40  33  76 NW15G28   29.65F WCI  32
NEBRASKA CITY  CLOUDY    38  30  75 N17G24    29.68R WCI  28
PLATTSMOUTH    CLOUDY    37  32  80 NW15G21   29.66S WCI  28
$$

NEZ044-045-051>053-067-261500-
OMAHA AREA

CITY           SKY/WX    TMP DP  RH WIND       PRES   REMARKS
OMAHA EPPLEY   CLOUDY    37  31  78 NW21      29.66S WCI  26
BLAIR          CLOUDY    36  33  87 NW15G21   29.66S WCI  27
FREMONT        CLOUDY    37  32  82 NW18G25   29.69S WCI  27
MILLARD        CLOUDY    40  33  77 NW18G25   29.67F WCI  30
OFFUTT AFB     CLOUDY    38  32  80 NW13G18   29.65F WCI  30
PLATTSMOUTH    CLOUDY    37  32  80 NW15G21   29.66S WCI  28
WAHOO          CLOUDY    38  30  72 NW22G32   29.69R WCI  28
$$



USA.gov is the U.S. government's official web portal to all federal, state and local government web resources and services.